NKS2 KEWR-KDTW

Flight info

Callsign NKS2
Flight time 1h 19m
Altitude 36000
Route GAYEL J95 CFB TRAAD JACCI FERRL2
Aircraft A20N/M-SDE2E3FGHIRWXY/LB1

Departure

Time 2026-05-06 04:31
Airport Newark Liberty International Airport (KEWR)

Arrival

Time 2026-05-06 05:50
Airport Detroit Metropolitan Wayne County Airport (KDTW)
Time Latitude Longitude Altitude Speed Heading
2026-05-06 04:18 40.69593 -74.17211 24 ft 0 kts 255°
2026-05-06 04:23 40.69601 -74.17192 27 ft 4 kts 354°
2026-05-06 04:23 40.69584 -74.17196 25 ft 4 kts 357°
2026-05-06 04:23 40.69565 -74.17188 23 ft 4 kts 333°
2026-05-06 04:23 40.69541 -74.17180 23 ft 4 kts 11°
2026-05-06 04:24 40.69522 -74.17194 22 ft 4 kts 74°
2026-05-06 04:24 40.69520 -74.17209 22 ft 1 kts 92°
2026-05-06 04:24 40.69520 -74.17210 22 ft 0 kts 92°
2026-05-06 04:25 40.69519 -74.17190 22 ft 5 kts 94°
2026-05-06 04:26 40.69517 -74.17141 22 ft 6 kts 89°
2026-05-06 04:26 40.69523 -74.17076 23 ft 9 kts 82°
2026-05-06 04:26 40.69529 -74.16983 22 ft 14 kts 102°
2026-05-06 04:26 40.69493 -74.16871 28 ft 12 kts 115°
2026-05-06 04:27 40.69455 -74.16771 25 ft 13 kts 116°
2026-05-06 04:27 40.69424 -74.16686 25 ft 8 kts 116°
2026-05-06 04:27 40.69408 -74.16624 27 ft 6 kts 79°
2026-05-06 04:27 40.69446 -74.16572 26 ft 9 kts 29°
2026-05-06 04:28 40.69504 -74.16535 29 ft 12 kts 26°
2026-05-06 04:28 40.69589 -74.16480 23 ft 15 kts 26°
2026-05-06 04:28 40.69686 -74.16418 21 ft 16 kts 26°
2026-05-06 04:28 40.69780 -74.16356 21 ft 15 kts 26°
2026-05-06 04:29 40.69878 -74.16295 19 ft 16 kts 25°
2026-05-06 04:29 40.69927 -74.16265 20 ft 9 kts 25°
2026-05-06 04:29 40.69991 -74.16225 22 ft 10 kts 30°
2026-05-06 04:29 40.70027 -74.16165 22 ft 7 kts 82°
2026-05-06 04:30 40.70007 -74.16099 23 ft 9 kts 120°
2026-05-06 04:30 40.69959 -74.16043 23 ft 10 kts 170°
2026-05-06 04:30 40.69895 -74.16069 24 ft 19 kts 206°
2026-05-06 04:30 40.69563 -74.16282 26 ft 84 kts 206°
2026-05-06 04:31 40.68862 -74.16725 23 ft 138 kts 205°
2026-05-06 04:31 40.67904 -74.17315 298 ft 153 kts 207°
2026-05-06 04:31 40.66974 -74.17933 966 ft 149 kts 205°
2026-05-06 04:31 40.66079 -74.18699 1357 ft 168 kts 230°
2026-05-06 04:32 40.65806 -74.20313 1606 ft 204 kts 277°
2026-05-06 04:32 40.66220 -74.21499 1764 ft 232 kts 305°
2026-05-06 04:32 40.67679 -74.22715 2126 ft 269 kts 343°
2026-05-06 04:32 40.70229 -74.22315 2987 ft 294 kts 21°
2026-05-06 04:33 40.72085 -74.21057 3701 ft 305 kts 30°
2026-05-06 04:33 40.73324 -74.20137 4251 ft 307 kts 21°
2026-05-06 04:33 40.75365 -74.19557 5190 ft 296 kts 355°
2026-05-06 04:33 40.77386 -74.19755 6121 ft 288 kts 343°
2026-05-06 04:34 40.79336 -74.20298 7047 ft 284 kts 338°
2026-05-06 04:34 40.81171 -74.21189 7856 ft 280 kts 324°
2026-05-06 04:34 40.82692 -74.22717 8633 ft 273 kts 306°
2026-05-06 04:34 40.83885 -74.24650 9478 ft 269 kts 295°
2026-05-06 04:35 40.84735 -74.26836 10250 ft 270 kts 288°
2026-05-06 04:35 40.85450 -74.29195 10622 ft 292 kts 285°
2026-05-06 04:35 40.86164 -74.31815 10949 ft 314 kts 284°
2026-05-06 04:35 40.86894 -74.34592 11514 ft 325 kts 284°
2026-05-06 04:36 40.87640 -74.37451 12278 ft 332 kts 284°
2026-05-06 04:36 40.88391 -74.40359 13073 ft 336 kts 284°
2026-05-06 04:36 40.89148 -74.43305 13849 ft 340 kts 284°
2026-05-06 04:36 40.89912 -74.46288 14641 ft 344 kts 284°
2026-05-06 04:37 40.90681 -74.49305 15379 ft 348 kts 284°
2026-05-06 04:37 40.91458 -74.52355 16116 ft 352 kts 284°
2026-05-06 04:37 40.92245 -74.55448 16827 ft 356 kts 284°
2026-05-06 04:37 40.93029 -74.58533 17524 ft 360 kts 284°
2026-05-06 04:38 40.93832 -74.61692 18216 ft 363 kts 284°
2026-05-06 04:38 40.94642 -74.64883 18853 ft 368 kts 284°
2026-05-06 04:38 40.95456 -74.68104 19488 ft 371 kts 284°
2026-05-06 04:38 40.96277 -74.71358 20147 ft 373 kts 284°
2026-05-06 04:39 40.97103 -74.74640 20753 ft 377 kts 284°
2026-05-06 04:39 40.97937 -74.77953 21312 ft 381 kts 284°
2026-05-06 04:39 40.98779 -74.81299 21859 ft 385 kts 284°
2026-05-06 04:39 40.99618 -74.84635 22395 ft 388 kts 284°
2026-05-06 04:40 41.00474 -74.88049 22936 ft 391 kts 284°
2026-05-06 04:40 41.01333 -74.91479 23475 ft 394 kts 284°
2026-05-06 04:40 41.02209 -74.94981 24010 ft 397 kts 284°
2026-05-06 04:40 41.03068 -74.98424 24484 ft 400 kts 284°
2026-05-06 04:41 41.03944 -75.01939 24982 ft 403 kts 284°
2026-05-06 04:41 41.04822 -75.05469 25450 ft 406 kts 284°
2026-05-06 04:41 41.05713 -75.09055 25701 ft 414 kts 284°
2026-05-06 04:41 41.06621 -75.12712 26043 ft 419 kts 284°
2026-05-06 04:42 41.07533 -75.16389 26459 ft 422 kts 284°
2026-05-06 04:42 41.08451 -75.20093 26908 ft 423 kts 284°
2026-05-06 04:42 41.09371 -75.23815 27328 ft 425 kts 284°
2026-05-06 04:42 41.10290 -75.27539 27709 ft 426 kts 284°
2026-05-06 04:43 41.11213 -75.31286 28111 ft 428 kts 284°
2026-05-06 04:43 41.12136 -75.35040 28496 ft 429 kts 284°
2026-05-06 04:43 41.13066 -75.38825 28861 ft 431 kts 284°
2026-05-06 04:43 41.13993 -75.42609 29228 ft 433 kts 285°
2026-05-06 04:44 41.14914 -75.46372 29591 ft 434 kts 285°
2026-05-06 04:44 41.15848 -75.50196 29960 ft 435 kts 285°
2026-05-06 04:44 41.16783 -75.54029 30274 ft 437 kts 285°
2026-05-06 04:44 41.17718 -75.57870 30654 ft 437 kts 285°
2026-05-06 04:45 41.18653 -75.61713 31139 ft 434 kts 285°
2026-05-06 04:45 41.19579 -75.65526 31608 ft 432 kts 285°
2026-05-06 04:45 41.20486 -75.69271 31989 ft 431 kts 285°
2026-05-06 04:45 41.21403 -75.73058 32420 ft 428 kts 285°
2026-05-06 04:46 41.22309 -75.76808 32844 ft 426 kts 285°
2026-05-06 04:46 41.23215 -75.80563 33262 ft 424 kts 285°
2026-05-06 04:46 41.24110 -75.84284 33620 ft 422 kts 285°
2026-05-06 04:46 41.25001 -75.87993 34012 ft 420 kts 285°
2026-05-06 04:47 41.25878 -75.91643 34706 ft 408 kts 285°
2026-05-06 04:47 41.26729 -75.95192 35419 ft 397 kts 285°
2026-05-06 04:47 41.27561 -75.98674 35800 ft 395 kts 286°
2026-05-06 04:48 41.29210 -76.05581 35888 ft 392 kts 286°
2026-05-06 04:48 41.30850 -76.12482 35896 ft 391 kts 286°
2026-05-06 04:49 41.32513 -76.19500 35888 ft 403 kts 286°
2026-05-06 04:49 41.34204 -76.26650 35887 ft 408 kts 286°
2026-05-06 04:50 41.35906 -76.33860 35897 ft 407 kts 286°
2026-05-06 04:50 41.37590 -76.41028 35873 ft 406 kts 286°
2026-05-06 04:51 41.39275 -76.48221 35866 ft 406 kts 286°
2026-05-06 04:51 41.40952 -76.55401 35853 ft 405 kts 286°
2026-05-06 04:52 41.42618 -76.62560 35843 ft 404 kts 285°
2026-05-06 04:52 41.44278 -76.69716 35838 ft 404 kts 286°
2026-05-06 04:53 41.45922 -76.76828 35844 ft 403 kts 286°
2026-05-06 04:53 41.47570 -76.83973 35841 ft 402 kts 286°
2026-05-06 04:54 41.49208 -76.91096 35843 ft 401 kts 286°
2026-05-06 04:54 41.50838 -76.98210 35837 ft 400 kts 286°
2026-05-06 04:55 41.52458 -77.05307 35844 ft 398 kts 285°
2026-05-06 04:55 41.54069 -77.12385 35851 ft 398 kts 285°
2026-05-06 04:56 41.55666 -77.19419 35855 ft 397 kts 285°
2026-05-06 04:56 41.57263 -77.26478 35862 ft 397 kts 285°
2026-05-06 04:57 41.58850 -77.33521 35855 ft 395 kts 285°
2026-05-06 04:57 41.60427 -77.40541 35860 ft 394 kts 285°
2026-05-06 04:58 41.61996 -77.47541 35864 ft 392 kts 285°
2026-05-06 04:58 41.63550 -77.54493 35856 ft 392 kts 285°
2026-05-06 04:59 41.65103 -77.61472 35857 ft 391 kts 285°
2026-05-06 04:59 41.66645 -77.68419 35854 ft 388 kts 285°
2026-05-06 05:00 41.68180 -77.75356 35854 ft 388 kts 285°
2026-05-06 05:00 41.69708 -77.82293 35861 ft 388 kts 285°
2026-05-06 05:01 41.71223 -77.89182 35873 ft 387 kts 285°
2026-05-06 05:01 41.72741 -77.96104 35870 ft 387 kts 285°
2026-05-06 05:02 41.74251 -78.03023 35883 ft 387 kts 285°
2026-05-06 05:02 41.75754 -78.09929 35861 ft 386 kts 284°
2026-05-06 05:03 41.77252 -78.16843 35864 ft 386 kts 284°
2026-05-06 05:03 41.78745 -78.23745 35868 ft 386 kts 284°
2026-05-06 05:04 41.80229 -78.30620 35874 ft 385 kts 284°
2026-05-06 05:04 41.81715 -78.37541 35867 ft 386 kts 285°
2026-05-06 05:05 41.83186 -78.44409 35853 ft 385 kts 284°
2026-05-06 05:05 41.84658 -78.51307 35865 ft 385 kts 285°
2026-05-06 05:06 41.86126 -78.58206 35860 ft 384 kts 285°
2026-05-06 05:06 41.87593 -78.65124 35867 ft 384 kts 285°
2026-05-06 05:07 41.89048 -78.72001 35864 ft 385 kts 285°
2026-05-06 05:07 41.90508 -78.78931 35867 ft 384 kts 285°
2026-05-06 05:08 41.91951 -78.85798 35852 ft 384 kts 285°
2026-05-06 05:08 41.93395 -78.92695 35864 ft 383 kts 285°
2026-05-06 05:09 41.94832 -78.99581 35858 ft 382 kts 284°
2026-05-06 05:09 41.96259 -79.06451 35858 ft 382 kts 284°
2026-05-06 05:10 41.97675 -79.13282 35860 ft 382 kts 284°
2026-05-06 05:10 41.99096 -79.20162 35865 ft 381 kts 285°
2026-05-06 05:11 42.00509 -79.27026 35866 ft 380 kts 284°
2026-05-06 05:11 42.01914 -79.33869 35858 ft 379 kts 284°
2026-05-06 05:12 42.03312 -79.40709 35847 ft 379 kts 284°
2026-05-06 05:12 42.04699 -79.47512 35856 ft 378 kts 284°
2026-05-06 05:13 42.06087 -79.54346 35851 ft 378 kts 284°
2026-05-06 05:13 42.07459 -79.61119 35854 ft 377 kts 284°
2026-05-06 05:13 42.08145 -79.64513 35641 ft 375 kts 284°
2026-05-06 05:14 42.08831 -79.67918 35388 ft 377 kts 284°
2026-05-06 05:14 42.09514 -79.71315 35135 ft 371 kts 284°
2026-05-06 05:14 42.10178 -79.74613 34887 ft 358 kts 284°
2026-05-06 05:14 42.10818 -79.77793 34639 ft 345 kts 284°
2026-05-06 05:15 42.11433 -79.80866 34398 ft 343 kts 283°
2026-05-06 05:15 42.12055 -79.83984 34147 ft 345 kts 283°
2026-05-06 05:15 42.12679 -79.87111 33898 ft 347 kts 283°
2026-05-06 05:15 42.13306 -79.90253 33647 ft 348 kts 283°
2026-05-06 05:16 42.13935 -79.93413 33389 ft 350 kts 283°
2026-05-06 05:16 42.14566 -79.96587 33149 ft 351 kts 283°
2026-05-06 05:16 42.15201 -79.99787 32911 ft 354 kts 283°
2026-05-06 05:16 42.15624 -80.01922 32736 ft 354 kts 283°
2026-05-06 05:17 42.16261 -80.05140 32488 ft 355 kts 282°
2026-05-06 05:17 42.17103 -80.09408 32152 ft 356 kts 282°
2026-05-06 05:17 42.17741 -80.12642 31902 ft 358 kts 282°
2026-05-06 05:17 42.18383 -80.15910 31641 ft 360 kts 282°
2026-05-06 05:18 42.18808 -80.18075 31484 ft 361 kts 282°
2026-05-06 05:18 42.19451 -80.21351 31233 ft 362 kts 282°
2026-05-06 05:18 42.20100 -80.24656 30981 ft 364 kts 282°
2026-05-06 05:18 42.20749 -80.27971 30733 ft 365 kts 281°
2026-05-06 05:19 42.21400 -80.31306 30479 ft 367 kts 281°
2026-05-06 05:19 42.22050 -80.34637 30227 ft 368 kts 281°
2026-05-06 05:19 42.22700 -80.37976 29976 ft 369 kts 281°
2026-05-06 05:19 42.23344 -80.41292 29728 ft 371 kts 281°
2026-05-06 05:20 42.23999 -80.44674 29480 ft 372 kts 281°
2026-05-06 05:20 42.24654 -80.48057 29226 ft 374 kts 281°
2026-05-06 05:20 42.25312 -80.51454 28976 ft 374 kts 280°
2026-05-06 05:20 42.25969 -80.54857 28726 ft 374 kts 280°
2026-05-06 05:21 42.26627 -80.58269 28472 ft 373 kts 280°
2026-05-06 05:21 42.27279 -80.61655 28224 ft 372 kts 280°
2026-05-06 05:21 42.27929 -80.65041 27973 ft 372 kts 280°
2026-05-06 05:21 42.28575 -80.68410 27714 ft 371 kts 280°
2026-05-06 05:22 42.29220 -80.71778 27474 ft 370 kts 279°
2026-05-06 05:22 42.29863 -80.75141 27227 ft 369 kts 279°
2026-05-06 05:22 42.30500 -80.78489 26974 ft 368 kts 279°
2026-05-06 05:22 42.31130 -80.81803 26727 ft 367 kts 279°
2026-05-06 05:23 42.31764 -80.85139 26476 ft 366 kts 279°
2026-05-06 05:23 42.32395 -80.88466 26225 ft 365 kts 279°
2026-05-06 05:23 42.33649 -80.95103 25726 ft 363 kts 279°
2026-05-06 05:24 42.34275 -80.98416 25480 ft 362 kts 279°
2026-05-06 05:24 42.34899 -81.01716 25224 ft 361 kts 279°
2026-05-06 05:24 42.35515 -81.04999 24976 ft 360 kts 279°
2026-05-06 05:24 42.36123 -81.08233 24728 ft 358 kts 279°
2026-05-06 05:25 42.36737 -81.11512 24475 ft 357 kts 279°
2026-05-06 05:25 42.37346 -81.14765 24227 ft 356 kts 279°
2026-05-06 05:25 42.37951 -81.18011 23979 ft 355 kts 279°
2026-05-06 05:25 42.38554 -81.21250 23739 ft 354 kts 278°
2026-05-06 05:26 42.39157 -81.24486 23479 ft 353 kts 279°
2026-05-06 05:26 42.39748 -81.27661 23222 ft 352 kts 278°
2026-05-06 05:26 42.40342 -81.30864 22980 ft 350 kts 279°
2026-05-06 05:26 42.40933 -81.34053 22731 ft 349 kts 278°
2026-05-06 05:27 42.41522 -81.37237 22473 ft 348 kts 278°
2026-05-06 05:27 42.42105 -81.40394 22226 ft 347 kts 278°
2026-05-06 05:27 42.42688 -81.43556 21986 ft 345 kts 279°
2026-05-06 05:27 42.43262 -81.46674 21734 ft 344 kts 278°
2026-05-06 05:28 42.43840 -81.49820 21481 ft 343 kts 278°
2026-05-06 05:28 42.44416 -81.52961 21233 ft 342 kts 278°
2026-05-06 05:28 42.44987 -81.56089 20983 ft 341 kts 278°
2026-05-06 05:28 42.45554 -81.59192 20724 ft 338 kts 278°
2026-05-06 05:29 42.46116 -81.62260 20317 ft 333 kts 278°
2026-05-06 05:29 42.46669 -81.65298 19820 ft 331 kts 278°
2026-05-06 05:29 42.47220 -81.68328 19316 ft 329 kts 278°
2026-05-06 05:29 42.47758 -81.71296 18842 ft 328 kts 278°
2026-05-06 05:30 42.48302 -81.74296 18341 ft 326 kts 278°
2026-05-06 05:30 42.48838 -81.77276 17905 ft 323 kts 277°
2026-05-06 05:30 42.49151 -81.80221 17683 ft 308 kts 266°
2026-05-06 05:30 42.49061 -81.83059 17471 ft 297 kts 261°
2026-05-06 05:31 42.48855 -81.85828 17195 ft 295 kts 260°
2026-05-06 05:31 42.48630 -81.88601 16841 ft 296 kts 260°
2026-05-06 05:31 42.48405 -81.91377 16481 ft 295 kts 260°
2026-05-06 05:31 42.48184 -81.94131 16128 ft 293 kts 260°
2026-05-06 05:32 42.47965 -81.96879 15777 ft 292 kts 260°
2026-05-06 05:32 42.47748 -81.99601 15428 ft 290 kts 260°
2026-05-06 05:32 42.47533 -82.02310 15076 ft 289 kts 260°
2026-05-06 05:32 42.47320 -82.04975 14727 ft 288 kts 260°
2026-05-06 05:33 42.47104 -82.07671 14375 ft 286 kts 260°
2026-05-06 05:33 42.46889 -82.10352 14025 ft 285 kts 260°
2026-05-06 05:33 42.46675 -82.13014 13682 ft 284 kts 260°
2026-05-06 05:33 42.46462 -82.15664 13339 ft 282 kts 260°
2026-05-06 05:34 42.46249 -82.18304 13000 ft 281 kts 260°
2026-05-06 05:34 42.46035 -82.20932 12665 ft 280 kts 259°
2026-05-06 05:34 42.45822 -82.23556 12329 ft 279 kts 259°
2026-05-06 05:34 42.45614 -82.26109 12083 ft 273 kts 259°
2026-05-06 05:35 42.45406 -82.28654 11766 ft 272 kts 259°
2026-05-06 05:35 42.45195 -82.31214 11448 ft 273 kts 259°
2026-05-06 05:35 42.44934 -82.33766 11145 ft 274 kts 258°
2026-05-06 05:35 42.44636 -82.36323 10846 ft 274 kts 258°
2026-05-06 05:36 42.44332 -82.38877 10528 ft 275 kts 258°
2026-05-06 05:36 42.44024 -82.41433 10216 ft 275 kts 258°
2026-05-06 05:36 42.43723 -82.43923 10121 ft 261 kts 258°
2026-05-06 05:36 42.43440 -82.46273 10027 ft 251 kts 258°
2026-05-06 05:37 42.43162 -82.48567 9867 ft 244 kts 258°
2026-05-06 05:37 42.42887 -82.50825 9590 ft 242 kts 259°
2026-05-06 05:37 42.42611 -82.53080 9354 ft 244 kts 259°
2026-05-06 05:37 42.42334 -82.55358 9112 ft 245 kts 259°
2026-05-06 05:38 42.42055 -82.57641 8867 ft 247 kts 259°
2026-05-06 05:38 42.41774 -82.59935 8621 ft 247 kts 259°
2026-05-06 05:38 42.41497 -82.62201 8383 ft 246 kts 259°
2026-05-06 05:38 42.41213 -82.64508 8138 ft 245 kts 259°
2026-05-06 05:39 42.40936 -82.66757 7897 ft 245 kts 259°
2026-05-06 05:39 42.40654 -82.69028 7656 ft 245 kts 259°
2026-05-06 05:39 42.40373 -82.71304 7411 ft 244 kts 259°
2026-05-06 05:39 42.40093 -82.73577 7171 ft 244 kts 260°
2026-05-06 05:40 42.39850 -82.75882 7001 ft 254 kts 265°
2026-05-06 05:40 42.39971 -82.78292 6837 ft 264 kts 282°
2026-05-06 05:40 42.40607 -82.80640 6707 ft 265 kts 286°
2026-05-06 05:40 42.40694 -82.83085 6609 ft 262 kts 264°
2026-05-06 05:41 42.40572 -82.85558 6533 ft 262 kts 268°
2026-05-06 05:41 42.40555 -82.87985 6555 ft 251 kts 269°
2026-05-06 05:41 42.40543 -82.90282 6537 ft 236 kts 269°
2026-05-06 05:41 42.40534 -82.92401 6505 ft 221 kts 269°
2026-05-06 05:42 42.40528 -82.94395 6547 ft 196 kts 269°
2026-05-06 05:42 42.40525 -82.96123 6488 ft 172 kts 269°
2026-05-06 05:42 42.40529 -82.97639 6325 ft 155 kts 270°
2026-05-06 05:42 42.40506 -82.99133 6184 ft 174 kts 261°
2026-05-06 05:43 42.39984 -83.00741 5871 ft 197 kts 238°
2026-05-06 05:43 42.39149 -83.02278 5299 ft 206 kts 233°
2026-05-06 05:43 42.38262 -83.03816 5038 ft 207 kts 233°
2026-05-06 05:43 42.37418 -83.05273 5008 ft 192 kts 233°
2026-05-06 05:44 42.36652 -83.06701 5027 ft 180 kts 239°
2026-05-06 05:44 42.36060 -83.08113 5023 ft 167 kts 245°
2026-05-06 05:44 42.35591 -83.09534 4978 ft 164 kts 248°
2026-05-06 05:44 42.35141 -83.10967 4493 ft 168 kts 248°
2026-05-06 05:45 42.34689 -83.12427 3984 ft 169 kts 248°
2026-05-06 05:45 42.34238 -83.13894 3485 ft 169 kts 248°
2026-05-06 05:45 42.33793 -83.15348 3101 ft 165 kts 248°
2026-05-06 05:45 42.33366 -83.16762 3025 ft 165 kts 248°
2026-05-06 05:46 42.32932 -83.18210 3016 ft 166 kts 248°
2026-05-06 05:46 42.32497 -83.19662 3017 ft 166 kts 248°
2026-05-06 05:46 42.32065 -83.21106 3017 ft 166 kts 249°
2026-05-06 05:46 42.31633 -83.22548 3017 ft 166 kts 249°
2026-05-06 05:47 42.31204 -83.23986 2865 ft 165 kts 248°
2026-05-06 05:47 42.30769 -83.25451 2384 ft 166 kts 248°
2026-05-06 05:47 42.30286 -83.26814 2072 ft 155 kts 232°
2026-05-06 05:47 42.29533 -83.27752 2037 ft 148 kts 213°
2026-05-06 05:48 42.28644 -83.28449 2035 ft 148 kts 209°
2026-05-06 05:48 42.27747 -83.29130 1955 ft 148 kts 208°
2026-05-06 05:48 42.26845 -83.29796 1768 ft 147 kts 208°
2026-05-06 05:48 42.25947 -83.30462 1567 ft 147 kts 208°
2026-05-06 05:49 42.25047 -83.31129 1366 ft 147 kts 208°
2026-05-06 05:49 42.24152 -83.31791 1167 ft 147 kts 208°
2026-05-06 05:49 42.23256 -83.32453 978 ft 147 kts 208°
2026-05-06 05:49 42.22368 -83.33126 787 ft 146 kts 207°
2026-05-06 05:50 42.21499 -83.33763 675 ft 134 kts 207°
2026-05-06 05:50 42.20749 -83.34322 655 ft 111 kts 209°
2026-05-06 05:50 42.20305 -83.34638 657 ft 29 kts 207°
2026-05-06 05:50 42.20262 -83.34668 655 ft 4 kts 207°
2026-05-06 05:51 42.20221 -83.34698 653 ft 9 kts 208°
2026-05-06 05:51 42.20190 -83.34764 653 ft 8 kts 258°
2026-05-06 05:51 42.20187 -83.34816 653 ft 0 kts 268°